Location: Ripley
(48.3812°N, 115.4473°W)
Time: 03:03:16
(UTC+00:00)

CAS-6 - Pass Details

Date: 26 June 2022
Orbit: 613 x 634 km, 97.9° (Epoch: 13 August)

Event Time Altitude Azimuth Distance (km) Brightness Sun altitude
Exits shadow 05:30:30 18° 146° (SE) 1,542 ? -12.2°
Maximum altitude 05:33:36 57° 72° (ENE) 744 ? -12.5°
Drops below altitude 10° 05:37:53 10° 354° (N) 2,011 ? -12.9°
Sets 05:40:06 0° 350° (N) 2,919 ? -13.0°
